THORAD AGENA D DEB, 5958

Orbit data source: Space-Track

THORAD AGENA D DEB, 5958 is space debris in SSO originally from a launch on Wed, 08 Apr 1970 UTC launched from the Air Force Western Test Range (AFWTR). Debris objects in space refer to the collection of defunct objects orbiting the Earth. Examples of debris include non-operational satellites, rocket bodies, and fragments generated from explosions, collisions, or faulty payload assembly.

Loading next visibility...
Identifier
5958, 1970-025MP
Orbit
SSO
Country
Flag of USUS
Related business
Manufacturer
Unknown
Mission
Spacecraft
Bus & Motor
Unknown
Mass
Unknown
Launch date (UTC)
1970-04-08 (56 years ago)
Launch vehicle
Unknown
Launch site
Air Force Western Test Range (AFWTR)
Object type
Payload
Rocket body
Debris
Shape & HBR
Unknown shape, 0.1 m
Radar Cross Section
Small (<0.1 m²)

Expand to show TLE details & history
Last TLE update: 7 hours ago

TLE from 7 hours ago
0 THORAD AGENA D DEB
1 05958U 70025MP  25353.22120020  .00000536  00000-0  71785-3 0  9993
2 05958  99.5007 258.2637 0050156 211.5261 301.6018 13.64355697750669
Epoch: 2025-12-19T05:18Z
TLE epoch observation values (Epoch: 2025-12-19T05:18:31.697Z)
Latitude
26.99549°
Longitude
-84.56856°
Altitude
1,003.798 km
Speed
7.362 km/s
True Right ascension
05h 32m 30s
True Declination
26° 51' 41"
Sunlit
Object was in full shadow at epoch
Visualization orbit readout
Latitude
Unknown
Longitude
Unknown
Altitude
Unknown
Speed
Unknown
Apparent Right ascension
Unknown
Apparent Declination
Unknown
Sunlit
N/A
Visualization observer readout
Local Sidereal Time
11:03:31
Azimuth
Unknown
Elevation
Unknown
Doppler factor
Unknown
Orbital elements
Apogee altitude
1,054.268 km
Perigee altitude
980.085 km
Semi-major axis
7,395.314 km
Eccentricity
0.00502
Inclination
99.5007°
RAAN
258.2637°
Arg. of periapsis
211.5261°
True anomaly
301.11068°
Mean anomaly
301.6018°
Eccentric anomaly
301.3564°
Mean motion
3.41278 °/min
Orbital period
105.49 mins
BSTAR
0.00071785

Documentation

Showing up to 5 results
|